Time,TemperatureF,DewpointF,PressureIn,WindDirection,WindDirectionDegrees,WindSpeedMPH,WindSpeedGustMPH,Humidity,HourlyPrecipIn,Conditions,Clouds,dailyrainin,SoftwareType,DateUTC
2013-03-09 00:01:00,27.0,23.0,30.25,SE,133,0.0,2.0,85,0.00,,,0.03,,2013-03-09 06:01:00,
2013-03-09 00:11:00,27.0,23.0,30.24,SE,133,0.0,2.0,85,0.00,,,0.03,,2013-03-09 06:11:00,
2013-03-09 00:22:00,27.0,23.0,30.24,SE,133,0.0,2.0,85,0.00,,,0.03,,2013-03-09 06:22:00,
2013-03-09 00:31:00,27.0,23.0,30.23,SE,134,0.0,1.0,85,0.00,,,0.03,,2013-03-09 06:31:00,
2013-03-09 00:42:00,27.0,23.0,30.23,SE,134,0.0,1.0,85,0.00,,,0.03,,2013-03-09 06:42:00,
2013-03-09 00:52:00,27.0,23.0,30.23,SE,133,0.0,1.0,86,0.00,,,0.03,,2013-03-09 06:52:00,
2013-03-09 01:01:00,27.0,23.0,30.23,SE,133,0.0,0.0,85,0.00,,,0.03,,2013-03-09 07:01:00,
2013-03-09 01:11:00,27.0,23.0,30.23,SE,133,0.0,0.0,85,0.00,,,0.03,,2013-03-09 07:11:00,
2013-03-09 01:21:00,27.0,23.0,30.23,SE,133,0.0,1.0,85,0.00,,,0.03,,2013-03-09 07:21:00,
2013-03-09 01:31:00,27.0,23.0,30.22,SE,133,0.0,2.0,85,0.00,,,0.03,,2013-03-09 07:31:00,
2013-03-09 01:41:00,27.0,23.0,30.22,SE,133,0.0,2.0,85,0.00,,,0.03,,2013-03-09 07:41:00,
2013-03-09 01:52:00,27.0,23.0,30.22,SE,141,0.0,4.0,85,0.00,,,0.03,,2013-03-09 07:52:00,
2013-03-09 02:01:00,27.0,23.0,30.21,SE,138,0.0,1.0,85,0.00,,,0.03,,2013-03-09 08:01:00,
2013-03-09 02:11:00,27.0,23.0,30.21,SE,138,0.0,1.0,85,0.00,,,0.03,,2013-03-09 08:11:00,
2013-03-09 02:22:00,28.0,24.0,30.20,South,187,0.0,2.0,84,0.00,,,0.03,,2013-03-09 08:22:00,
2013-03-09 02:32:00,28.0,24.0,30.20,SSE,159,0.0,9.0,83,0.00,,,0.03,,2013-03-09 08:32:00,
2013-03-09 02:41:00,28.0,24.0,30.20,SSE,159,0.0,9.0,83,0.00,,,0.03,,2013-03-09 08:41:00,
2013-03-09 02:52:00,28.0,24.0,30.19,South,181,2.0,6.0,83,0.00,,,0.03,,2013-03-09 08:52:00,
2013-03-09 03:01:00,28.0,23.0,30.18,South,171,0.0,4.0,82,0.00,,,0.03,,2013-03-09 09:01:00,
2013-03-09 03:12:00,28.0,23.0,30.18,South,171,0.0,4.0,82,0.00,,,0.03,,2013-03-09 09:12:00,
2013-03-09 03:21:00,29.0,24.0,30.17,South,171,0.0,3.0,82,0.00,,,0.03,,2013-03-09 09:21:00,
2013-03-09 03:31:00,29.0,24.0,30.16,SSW,198,0.0,5.0,82,0.00,,,0.03,,2013-03-09 09:31:00,
2013-03-09 03:41:00,29.0,24.0,30.16,SSW,198,0.0,5.0,82,0.00,,,0.03,,2013-03-09 09:41:00,
2013-03-09 03:52:00,29.0,24.0,30.15,SSE,160,1.0,4.0,82,0.00,,,0.03,,2013-03-09 09:52:00,
2013-03-09 04:01:00,29.0,24.0,30.15,South,178,1.0,6.0,82,0.00,,,0.03,,2013-03-09 10:01:00,
2013-03-09 04:11:00,29.0,24.0,30.15,South,178,1.0,6.0,82,0.00,,,0.03,,2013-03-09 10:11:00,
2013-03-09 04:21:00,30.0,25.0,30.16,South,172,1.0,7.0,81,0.00,,,0.03,,2013-03-09 10:21:00,
2013-03-09 04:31:00,30.0,25.0,30.16,South,171,2.0,6.0,81,0.00,,,0.03,,2013-03-09 10:31:00,
2013-03-09 04:41:00,30.0,25.0,30.16,South,171,2.0,6.0,81,0.00,,,0.03,,2013-03-09 10:41:00,
2013-03-09 04:52:00,30.0,25.0,30.16,South,176,2.0,8.0,81,0.00,,,0.03,,2013-03-09 10:52:00,
2013-03-09 05:01:00,30.0,25.0,30.15,SSE,167,1.0,4.0,81,0.00,,,0.03,,2013-03-09 11:01:00,
2013-03-09 05:11:00,30.0,25.0,30.15,SSE,167,1.0,4.0,81,0.00,,,0.03,,2013-03-09 11:11:00,
2013-03-09 05:21:00,31.0,26.0,30.15,SSE,148,3.0,6.0,81,0.00,,,0.03,,2013-03-09 11:21:00,
2013-03-09 05:32:00,31.0,26.0,30.14,SSE,155,0.0,5.0,81,0.00,,,0.03,,2013-03-09 11:32:00,
2013-03-09 05:42:00,31.0,26.0,30.14,SSE,155,0.0,5.0,81,0.00,,,0.03,,2013-03-09 11:42:00,
2013-03-09 05:52:00,31.0,26.0,30.14,SSE,148,1.0,5.0,81,0.00,,,0.03,,2013-03-09 11:52:00,
2013-03-09 06:01:00,31.0,26.0,30.14,South,180,2.0,8.0,81,0.00,,,0.03,,2013-03-09 12:01:00,
2013-03-09 06:11:00,31.0,26.0,30.14,South,180,2.0,8.0,81,0.00,,,0.03,,2013-03-09 12:11:00,
2013-03-09 06:21:00,32.0,27.0,30.14,South,175,2.0,7.0,80,0.00,,,0.03,,2013-03-09 12:21:00,
2013-03-09 06:32:00,32.0,27.0,30.13,South,169,3.0,7.0,80,0.00,,,0.03,,2013-03-09 12:32:00,
2013-03-09 06:42:00,32.0,27.0,30.13,South,169,3.0,7.0,80,0.00,,,0.03,,2013-03-09 12:42:00,
2013-03-09 06:52:00,32.0,27.0,30.13,South,183,1.0,5.0,80,0.00,,,0.03,,2013-03-09 12:52:00,
2013-03-09 07:02:00,32.0,27.0,30.13,SSE,148,0.0,8.0,80,0.00,,,0.03,,2013-03-09 13:02:00,
2013-03-09 07:11:00,32.0,27.0,30.13,SSE,148,0.0,8.0,80,0.00,,,0.03,,2013-03-09 13:11:00,
2013-03-09 07:21:00,32.0,27.0,30.12,SE,138,3.0,6.0,80,0.00,,,0.03,,2013-03-09 13:21:00,
2013-03-09 07:32:00,33.0,27.0,30.12,South,171,0.0,9.0,79,0.00,,,0.03,,2013-03-09 13:32:00,
2013-03-09 07:42:00,33.0,27.0,30.12,South,171,0.0,9.0,79,0.00,,,0.03,,2013-03-09 13:42:00,
2013-03-09 07:52:00,33.0,27.0,30.12,SSE,158,1.0,11.0,79,0.00,,,0.03,,2013-03-09 13:52:00,
2013-03-09 08:01:00,33.0,27.0,30.13,WNW,302,1.0,7.0,79,0.00,,,0.03,,2013-03-09 14:01:00,
2013-03-09 08:11:00,33.0,27.0,30.13,WNW,302,1.0,7.0,79,0.00,,,0.03,,2013-03-09 14:11:00,
2013-03-09 08:21:00,33.0,27.0,30.13,SW,230,1.0,11.0,79,0.00,,,0.03,,2013-03-09 14:21:00,
2013-03-09 08:32:00,33.0,28.0,30.13,South,177,2.0,5.0,80,-99.99,,,-99.99,,2013-03-09 14:32:00,
2013-03-09 08:42:00,33.0,28.0,30.13,South,177,2.0,5.0,80,-99.99,,,-99.99,,2013-03-09 14:42:00,
2013-03-09 08:52:00,34.0,28.0,30.12,SSW,209,0.0,4.0,80,-99.99,,,-99.99,,2013-03-09 14:52:00,
2013-03-09 09:01:00,34.0,29.0,30.11,SSE,168,0.0,6.0,81,-99.99,,,-99.99,,2013-03-09 15:01:00,
2013-03-09 09:11:00,34.0,29.0,30.11,SSE,168,0.0,6.0,81,-99.99,,,-99.99,,2013-03-09 15:11:00,
2013-03-09 09:22:00,34.0,29.0,30.10,East,95,1.0,7.0,82,-99.99,,,-99.99,,2013-03-09 15:22:00,
2013-03-09 09:31:00,34.0,30.0,30.09,SSW,199,2.0,6.0,84,0.01,,,-99.99,,2013-03-09 15:31:00,
2013-03-09 09:42:00,34.0,30.0,30.09,SSW,199,2.0,6.0,84,0.01,,,-99.99,,2013-03-09 15:42:00,
2013-03-09 09:52:00,34.0,30.0,30.08,SSE,161,2.0,7.0,86,0.02,,,-99.99,,2013-03-09 15:52:00,
2013-03-09 10:01:00,35.0,32.0,30.06,SSW,205,3.0,5.0,87,0.02,,,-99.99,,2013-03-09 16:01:00,
2013-03-09 10:11:00,35.0,32.0,30.06,SSW,205,3.0,5.0,87,0.02,,,-99.99,,2013-03-09 16:11:00,
2013-03-09 10:21:00,35.0,32.0,30.06,ESE,123,2.0,8.0,87,0.02,,,-99.99,,2013-03-09 16:21:00,
2013-03-09 10:32:00,36.0,33.0,30.04,SSW,195,3.0,8.0,87,0.01,,,-99.99,,2013-03-09 16:32:00,
2013-03-09 10:41:00,36.0,33.0,30.04,SSW,195,3.0,8.0,87,0.01,,,-99.99,,2013-03-09 16:41:00,
2013-03-09 10:52:00,36.0,32.0,30.03,SSW,196,1.0,8.0,86,0.00,,,-99.99,,2013-03-09 16:52:00,
2013-03-09 11:01:00,36.0,32.0,30.02,South,190,5.0,9.0,85,0.00,,,-99.99,,2013-03-09 17:01:00,
2013-03-09 11:11:00,36.0,32.0,30.02,South,190,5.0,9.0,85,0.00,,,-99.99,,2013-03-09 17:11:00,
2013-03-09 11:22:00,37.0,33.0,30.02,SSE,167,5.0,15.0,84,0.00,,,-99.99,,2013-03-09 17:22:00,
2013-03-09 11:32:00,37.0,32.0,30.01,SSW,195,3.0,10.0,83,0.00,,,-99.99,,2013-03-09 17:32:00,
2013-03-09 11:42:00,37.0,32.0,30.01,SSW,195,3.0,10.0,83,0.00,,,-99.99,,2013-03-09 17:42:00,
2013-03-09 11:52:00,38.0,33.0,30.00,East,82,3.0,7.0,82,0.00,,,-99.99,,2013-03-09 17:52:00,
2013-03-09 12:01:00,38.0,32.0,30.00,SSW,192,3.0,9.0,80,0.00,,,-99.99,,2013-03-09 18:01:00,
2013-03-09 12:11:00,38.0,32.0,30.00,SSW,192,3.0,9.0,80,0.00,,,-99.99,,2013-03-09 18:11:00,
2013-03-09 12:21:00,38.0,32.0,29.99,SSE,168,2.0,9.0,80,0.00,,,-99.99,,2013-03-09 18:21:00,
2013-03-09 12:31:00,39.0,33.0,29.98,South,182,1.0,7.0,79,0.00,,,-99.99,,2013-03-09 18:31:00,
2013-03-09 12:42:00,39.0,33.0,29.98,South,182,1.0,7.0,79,0.00,,,-99.99,,2013-03-09 18:42:00,
2013-03-09 12:52:00,40.0,33.0,29.98,South,172,5.0,8.0,77,0.00,,,-99.99,,2013-03-09 18:52:00,
2013-03-09 13:01:00,39.0,32.0,29.97,South,186,6.0,13.0,75,0.00,,,-99.99,,2013-03-09 19:01:00,
2013-03-09 13:11:00,39.0,32.0,29.97,South,186,6.0,13.0,75,0.00,,,-99.99,,2013-03-09 19:11:00,
2013-03-09 13:22:00,40.0,32.0,29.96,SSE,153,3.0,14.0,74,0.00,,,-99.99,,2013-03-09 19:22:00,
2013-03-09 13:32:00,40.0,32.0,29.94,South,187,3.0,8.0,74,0.00,,,-99.99,,2013-03-09 19:32:00,
2013-03-09 13:42:00,40.0,32.0,29.94,South,187,3.0,8.0,74,0.00,,,-99.99,,2013-03-09 19:42:00,
2013-03-09 13:52:00,39.0,31.0,29.93,South,173,4.0,11.0,74,0.00,,,-99.99,,2013-03-09 19:52:00,
2013-03-09 14:01:00,39.0,31.0,29.92,SSE,148,5.0,9.0,73,0.00,,,-99.99,,2013-03-09 20:01:00,
2013-03-09 14:11:00,39.0,31.0,29.92,SSE,148,5.0,9.0,73,0.00,,,-99.99,,2013-03-09 20:11:00,
2013-03-09 14:21:00,40.0,32.0,29.92,SSE,153,6.0,11.0,73,0.00,,,-99.99,,2013-03-09 20:21:00,
2013-03-09 14:32:00,39.0,31.0,29.91,South,186,5.0,14.0,72,0.00,,,-99.99,,2013-03-09 20:32:00,
2013-03-09 14:42:00,39.0,31.0,29.91,South,186,5.0,14.0,72,0.00,,,-99.99,,2013-03-09 20:42:00,
2013-03-09 14:52:00,39.0,31.0,29.91,SSE,163,2.0,14.0,73,0.00,,,-99.99,,2013-03-09 20:52:00,
2013-03-09 15:02:00,39.0,31.0,29.89,SSE,161,3.0,10.0,73,0.01,,,-99.99,,2013-03-09 21:02:00,
2013-03-09 15:12:00,39.0,31.0,29.89,SSE,161,3.0,10.0,73,0.01,,,-99.99,,2013-03-09 21:12:00,
2013-03-09 15:21:00,39.0,32.0,29.89,South,180,4.0,9.0,75,0.01,,,-99.99,,2013-03-09 21:21:00,
2013-03-09 15:32:00,38.0,32.0,29.89,SSE,156,6.0,10.0,78,0.01,,,-99.99,,2013-03-09 21:32:00,
2013-03-09 15:42:00,38.0,32.0,29.89,SSE,156,6.0,10.0,78,0.01,,,-99.99,,2013-03-09 21:42:00,
2013-03-09 15:52:00,38.0,33.0,29.88,South,180,2.0,11.0,81,0.03,,,-99.99,,2013-03-09 21:52:00,
2013-03-09 16:01:00,37.0,32.0,29.88,SSE,166,0.0,3.0,83,0.02,,,-99.99,,2013-03-09 22:01:00,
2013-03-09 16:11:00,37.0,32.0,29.88,SSE,166,0.0,3.0,83,0.02,,,-99.99,,2013-03-09 22:11:00,
2013-03-09 16:21:00,37.0,33.0,29.87,SSE,158,0.0,5.0,84,0.02,,,-99.99,,2013-03-09 22:21:00,
2013-03-09 16:32:00,36.0,32.0,29.86,SSE,154,0.0,5.0,85,0.02,,,-99.99,,2013-03-09 22:32:00,
2013-03-09 16:41:00,36.0,32.0,29.86,SSE,154,0.0,5.0,85,0.02,,,-99.99,,2013-03-09 22:41:00,
2013-03-09 16:52:00,36.0,32.0,29.85,South,169,0.0,2.0,86,0.01,,,-99.99,,2013-03-09 22:52:00,
2013-03-09 17:01:00,36.0,32.0,29.85,SSE,149,2.0,5.0,86,0.01,,,-99.99,,2013-03-09 23:01:00,
2013-03-09 17:11:00,36.0,32.0,29.85,SSE,149,2.0,5.0,86,0.01,,,-99.99,,2013-03-09 23:11:00,
2013-03-09 17:21:00,36.0,32.0,29.85,South,182,0.0,4.0,86,0.01,,,-99.99,,2013-03-09 23:21:00,
2013-03-09 17:32:00,36.0,33.0,29.85,South,186,0.0,1.0,87,0.02,,,-99.99,,2013-03-09 23:32:00,
2013-03-09 17:41:00,36.0,33.0,29.85,South,186,0.0,1.0,87,0.02,,,-99.99,,2013-03-09 23:41:00,
2013-03-09 17:52:00,36.0,33.0,29.84,SE,126,0.0,2.0,88,0.01,,,-99.99,,2013-03-09 23:52:00,
2013-03-09 18:01:00,35.0,32.0,29.84,ESE,103,0.0,2.0,89,0.01,,,-99.99,,2013-03-10 00:01:00,
2013-03-09 18:11:00,35.0,32.0,29.84,ESE,103,0.0,2.0,89,0.01,,,-99.99,,2013-03-10 00:11:00,
2013-03-09 18:22:00,35.0,32.0,29.84,SE,129,0.0,4.0,89,0.01,,,-99.99,,2013-03-10 00:22:00,
2013-03-09 18:32:00,35.0,32.0,29.84,ESE,122,0.0,6.0,89,0.01,,,-99.99,,2013-03-10 00:32:00,
2013-03-09 18:42:00,35.0,32.0,29.84,ESE,122,0.0,6.0,89,0.01,,,-99.99,,2013-03-10 00:42:00,
2013-03-09 18:52:00,35.0,32.0,29.83,East,100,1.0,5.0,90,0.01,,,-99.99,,2013-03-10 00:52:00,
2013-03-09 19:01:00,35.0,32.0,29.81,East,88,1.0,6.0,90,0.02,,,-99.99,,2013-03-10 01:01:00,
2013-03-09 19:11:00,35.0,32.0,29.81,East,88,1.0,6.0,90,0.02,,,-99.99,,2013-03-10 01:11:00,
2013-03-09 19:21:00,35.0,33.0,29.82,SSW,210,1.0,5.0,91,0.02,,,-99.99,,2013-03-10 01:21:00,
2013-03-09 19:31:00,35.0,33.0,29.83,South,186,1.0,6.0,91,0.01,,,-99.99,,2013-03-10 01:31:00,
2013-03-09 19:41:00,35.0,33.0,29.83,South,186,1.0,6.0,91,0.01,,,-99.99,,2013-03-10 01:41:00,
2013-03-09 19:52:00,35.0,33.0,29.83,South,188,0.0,5.0,91,0.02,,,-99.99,,2013-03-10 01:52:00,
2013-03-09 20:01:00,35.0,33.0,29.84,SSE,167,0.0,2.0,91,0.02,,,-99.99,,2013-03-10 02:01:00,
2013-03-09 20:11:00,35.0,33.0,29.84,SSE,167,0.0,2.0,91,0.02,,,-99.99,,2013-03-10 02:11:00,
2013-03-09 20:22:00,35.0,33.0,29.83,South,178,0.0,4.0,92,0.02,,,-99.99,,2013-03-10 02:22:00,
2013-03-09 20:31:00,35.0,33.0,29.82,South,170,1.0,5.0,92,0.03,,,-99.99,,2013-03-10 02:31:00,
2013-03-09 20:42:00,35.0,33.0,29.82,South,170,1.0,5.0,92,0.03,,,-99.99,,2013-03-10 02:42:00,
2013-03-09 20:52:00,35.0,33.0,29.83,SE,133,0.0,5.0,92,0.02,,,-99.99,,2013-03-10 02:52:00,
2013-03-09 21:01:00,35.0,33.0,29.83,South,175,0.0,5.0,92,0.02,,,-99.99,,2013-03-10 03:01:00,
2013-03-09 21:11:00,35.0,33.0,29.83,SSE,157,0.0,2.0,92,0.02,,,-99.99,,2013-03-10 03:11:00,
2013-03-09 21:22:00,35.0,33.0,29.83,SSE,157,0.0,2.0,92,0.02,,,-99.99,,2013-03-10 03:22:00,
2013-03-09 21:32:00,35.0,33.0,29.83,SE,145,0.0,3.0,92,0.02,,,-99.99,,2013-03-10 03:32:00,
2013-03-09 21:42:00,35.0,33.0,29.83,SE,145,0.0,3.0,92,0.02,,,-99.99,,2013-03-10 03:42:00,
2013-03-09 21:52:00,35.0,33.0,29.83,SSE,159,0.0,3.0,92,0.02,,,-99.99,,2013-03-10 03:52:00,
2013-03-09 22:01:00,34.0,32.0,29.82,SSW,194,0.0,5.0,92,0.02,,,-99.99,,2013-03-10 04:01:00,
2013-03-09 22:11:00,34.0,32.0,29.82,SSW,194,0.0,5.0,92,0.02,,,-99.99,,2013-03-10 04:11:00,
2013-03-09 22:21:00,35.0,33.0,29.82,SE,125,0.0,2.0,93,0.03,,,-99.99,,2013-03-10 04:21:00,
2013-03-09 22:31:00,35.0,33.0,29.82,SSE,165,0.0,7.0,93,0.03,,,-99.99,,2013-03-10 04:31:00,
2013-03-09 22:41:00,35.0,33.0,29.82,SSE,165,0.0,7.0,93,0.03,,,-99.99,,2013-03-10 04:41:00,
2013-03-09 22:52:00,35.0,33.0,29.81,SSE,147,1.0,7.0,93,0.03,,,-99.99,,2013-03-10 04:52:00,
2013-03-09 23:01:00,35.0,33.0,29.81,SSW,211,1.0,7.0,93,0.03,,,-99.99,,2013-03-10 05:01:00,
2013-03-09 23:11:00,35.0,33.0,29.81,SSW,211,1.0,7.0,93,0.03,,,-99.99,,2013-03-10 05:11:00,
2013-03-09 23:22:00,35.0,33.0,29.80,SSE,160,0.0,6.0,93,0.03,,,-99.99,,2013-03-10 05:22:00,
2013-03-09 23:31:00,36.0,34.0,29.79,SSE,152,1.0,5.0,93,0.03,,,-99.99,,2013-03-10 05:31:00,
2013-03-09 23:42:00,36.0,34.0,29.78,SE,142,1.0,4.0,93,0.04,,,-99.99,,2013-03-10 05:42:00,
2013-03-09 23:52:00,36.0,34.0,29.78,SE,142,1.0,4.0,93,0.04,,,-99.99,,2013-03-10 05:52:00,